CZ-2C R/B (43521 NORAD) Tracking and Keplerian Element Data

This shows tracking and keplerian element data for the satellite.

Feedback or suggestion? Click here.




ElementValue
Catalog43521
NameCZ-2C R/B
Epoch Orbit30691
Epoch Day12.43318152
Epoch Year2024
RAAN24.5919
Inclination35.1521
Eccentricity0.0063953
Argument of Perigee157.907
Mean Anonmoly202.4423
Mean Motion15.23196871
Decay Rate0.0001286
L11 43521U 18054D 24012.43318152 .00012860 00000+0 50182-3 0 9994
L22 43521 35.1521 24.5919 0063953 157.9070 202.4423 15.23196871306918



Live tracking and technical data element details for CZ-2C R/B (NORAD 43521). CZ-2C R/B can be tracked NOW for your location showing map with azimuth and elevation plus other details from your city location.







IsCatalogInMostPopularTable: catalog: 43521, numindb: 564
Update: records affected: 1



GetName: 43521 CZ-2C R/B

Hit Count: updated at: Mon, 15 Apr 2024 00:05:59 GMT